WZZ52PD LYPG-LHBP

Flight info

Callsign WZZ52PD
Flight time 0h 56m
Altitude 38000
Route NIK DCT GACMO DCT SIVLA DCT BAREB DCT ULZAK
Aircraft A21N/M-SDE3FGHIRWY/LB1

Departure

Time 2026-05-08 20:30
Airport Podgorica Airport / Podgorica Golubovci Airbase (LYPG)

Arrival

Time 2026-05-08 21:26
Airport Budapest Liszt Ferenc International Airport (LHBP)
Time Latitude Longitude Altitude Speed Heading
2026-05-08 19:53 42.36690 19.24752 110 ft 0 kts 309°
2026-05-08 20:21 42.36696 19.24746 110 ft 2 kts 337°
2026-05-08 20:22 42.36715 19.24767 110 ft 4 kts 87°
2026-05-08 20:22 42.36698 19.24814 110 ft 6 kts 139°
2026-05-08 20:22 42.36653 19.24837 110 ft 7 kts 150°
2026-05-08 20:22 42.36634 19.24875 111 ft 7 kts 100°
2026-05-08 20:23 42.36631 19.24904 111 ft 0 kts 94°
2026-05-08 20:23 42.36631 19.24908 111 ft 1 kts 94°
2026-05-08 20:23 42.36629 19.24940 112 ft 5 kts 94°
2026-05-08 20:23 42.36620 19.24998 113 ft 6 kts 132°
2026-05-08 20:24 42.36562 19.25009 112 ft 10 kts 184°
2026-05-08 20:24 42.36470 19.24999 110 ft 15 kts 184°
2026-05-08 20:24 42.36344 19.24986 107 ft 20 kts 184°
2026-05-08 20:24 42.36194 19.24971 107 ft 22 kts 184°
2026-05-08 20:25 42.36025 19.24954 104 ft 25 kts 184°
2026-05-08 20:25 42.35838 19.24936 101 ft 28 kts 184°
2026-05-08 20:25 42.35636 19.24914 97 ft 29 kts 184°
2026-05-08 20:25 42.35434 19.24893 93 ft 28 kts 184°
2026-05-08 20:26 42.35235 19.24873 89 ft 28 kts 184°
2026-05-08 20:26 42.35040 19.24854 85 ft 27 kts 184°
2026-05-08 20:26 42.34910 19.24841 84 ft 15 kts 184°
2026-05-08 20:26 42.34851 19.24866 84 ft 8 kts 110°
2026-05-08 20:27 42.34846 19.24908 84 ft 0 kts 96°
2026-05-08 20:27 42.34844 19.24929 84 ft 5 kts 96°
2026-05-08 20:27 42.34838 19.25011 84 ft 10 kts 95°
2026-05-08 20:27 42.34842 19.25072 84 ft 5 kts 34°
2026-05-08 20:28 42.34857 19.25078 85 ft 0 kts
2026-05-08 20:29 42.34873 19.25080 85 ft 15 kts
2026-05-08 20:29 42.35253 19.25119 92 ft 91 kts
2026-05-08 20:29 42.36101 19.25206 107 ft 151 kts
2026-05-08 20:30 42.37267 19.25320 396 ft 174 kts
2026-05-08 20:30 42.38471 19.25436 1045 ft 176 kts
2026-05-08 20:30 42.39670 19.25551 1821 ft 173 kts
2026-05-08 20:30 42.40869 19.25666 2335 ft 178 kts
2026-05-08 20:31 42.42137 19.25801 2732 ft 190 kts
2026-05-08 20:31 42.43491 19.25958 3145 ft 202 kts
2026-05-08 20:31 42.44915 19.26136 3638 ft 210 kts
2026-05-08 20:31 42.46365 19.25908 4161 ft 219 kts 335°
2026-05-08 20:32 42.47461 19.24474 4733 ft 226 kts 307°
2026-05-08 20:32 42.48369 19.22765 5439 ft 224 kts 309°
2026-05-08 20:32 42.49325 19.21123 6092 ft 225 kts 311°
2026-05-08 20:32 42.50314 19.19471 6719 ft 228 kts 310°
2026-05-08 20:33 42.51302 19.17810 7374 ft 229 kts 310°
2026-05-08 20:33 42.52301 19.16122 7994 ft 232 kts 310°
2026-05-08 20:33 42.53312 19.14416 8603 ft 235 kts 309°
2026-05-08 20:33 42.54379 19.12735 9193 ft 238 kts 316°
2026-05-08 20:34 42.55674 19.11321 9693 ft 245 kts 326°
2026-05-08 20:34 42.57153 19.10022 9968 ft 264 kts 329°
2026-05-08 20:34 42.60491 19.07212 10653 ft 299 kts 329°
2026-05-08 20:35 42.62274 19.05699 11237 ft 306 kts 329°
2026-05-08 20:35 42.64070 19.04161 11957 ft 308 kts 329°
2026-05-08 20:35 42.65879 19.02609 12668 ft 310 kts 328°
2026-05-08 20:35 42.67699 19.01040 13341 ft 313 kts 328°
2026-05-08 20:36 42.69535 18.99457 14000 ft 315 kts 328°
2026-05-08 20:36 42.71386 18.97859 14656 ft 317 kts 327°
2026-05-08 20:36 42.73245 18.96254 15327 ft 319 kts 327°
2026-05-08 20:36 42.75117 18.94636 15958 ft 321 kts 327°
2026-05-08 20:37 42.76999 18.93005 16578 ft 323 kts 326°
2026-05-08 20:37 42.78850 18.91269 17116 ft 327 kts 323°
2026-05-08 20:37 42.80726 18.89419 17427 ft 340 kts 322°
2026-05-08 20:37 42.82649 18.87506 17910 ft 345 kts 322°
2026-05-08 20:38 42.84587 18.85575 18489 ft 348 kts 322°
2026-05-08 20:38 42.86536 18.83631 19051 ft 350 kts 322°
2026-05-08 20:38 42.88499 18.81674 19604 ft 352 kts 322°
2026-05-08 20:38 42.90475 18.79703 20145 ft 354 kts 322°
2026-05-08 20:39 42.92461 18.77720 20682 ft 356 kts 322°
2026-05-08 20:39 42.94459 18.75727 21202 ft 358 kts 322°
2026-05-08 20:39 42.96465 18.73723 21721 ft 359 kts 322°
2026-05-08 20:39 42.98484 18.71702 22220 ft 361 kts 321°
2026-05-08 20:40 43.00520 18.69664 22720 ft 363 kts 321°
2026-05-08 20:40 43.02556 18.67621 23188 ft 365 kts 321°
2026-05-08 20:40 43.04601 18.65567 23647 ft 367 kts 321°
2026-05-08 20:40 43.06663 18.63497 24095 ft 370 kts 321°
2026-05-08 20:41 43.08738 18.61412 24535 ft 372 kts 321°
2026-05-08 20:41 43.10834 18.59304 24959 ft 375 kts 321°
2026-05-08 20:41 43.13018 18.57324 25356 ft 380 kts 330°
2026-05-08 20:41 43.15492 18.55997 25747 ft 386 kts 343°
2026-05-08 20:42 43.18155 18.55415 26142 ft 391 kts 352°
2026-05-08 20:42 43.20877 18.55160 26546 ft 394 kts 354°
2026-05-08 20:42 43.23617 18.54945 26913 ft 397 kts 354°
2026-05-08 20:42 43.26375 18.54729 27283 ft 399 kts 354°
2026-05-08 20:43 43.29154 18.54506 27658 ft 401 kts 354°
2026-05-08 20:43 43.31942 18.54273 28031 ft 403 kts 354°
2026-05-08 20:43 43.34751 18.54034 28377 ft 406 kts 354°
2026-05-08 20:43 43.37572 18.53790 28720 ft 408 kts 354°
2026-05-08 20:44 43.40426 18.53545 29048 ft 411 kts 354°
2026-05-08 20:44 43.43283 18.53296 29393 ft 413 kts 354°
2026-05-08 20:44 43.46155 18.53044 29733 ft 416 kts 354°
2026-05-08 20:44 43.49041 18.52792 30059 ft 418 kts 354°
2026-05-08 20:45 43.51946 18.52538 30395 ft 420 kts 354°
2026-05-08 20:45 43.53887 18.52367 30617 ft 422 kts 354°
2026-05-08 20:45 43.57803 18.52021 31047 ft 425 kts 354°
2026-05-08 20:45 43.60756 18.51761 31356 ft 427 kts 354°
2026-05-08 20:46 43.63728 18.51499 31677 ft 429 kts 354°
2026-05-08 20:46 43.66709 18.51232 31968 ft 432 kts 354°
2026-05-08 20:46 43.69708 18.50966 32254 ft 434 kts 354°
2026-05-08 20:46 43.72721 18.50699 32553 ft 436 kts 354°
2026-05-08 20:47 43.75748 18.50431 32847 ft 438 kts 354°
2026-05-08 20:47 43.78791 18.50160 33135 ft 440 kts 354°
2026-05-08 20:47 43.81849 18.49886 33431 ft 442 kts 354°
2026-05-08 20:47 43.84914 18.49613 33714 ft 444 kts 354°
2026-05-08 20:48 43.87988 18.49338 34019 ft 445 kts 354°
2026-05-08 20:48 43.91071 18.49064 34370 ft 445 kts 354°
2026-05-08 20:48 43.94152 18.48789 34678 ft 444 kts 354°
2026-05-08 20:48 43.97227 18.48516 34960 ft 444 kts 354°
2026-05-08 20:49 44.00297 18.48244 35239 ft 443 kts 354°
2026-05-08 20:49 44.03360 18.47971 35521 ft 442 kts 354°
2026-05-08 20:49 44.06413 18.47699 35791 ft 440 kts 354°
2026-05-08 20:49 44.09459 18.47426 36053 ft 439 kts 354°
2026-05-08 20:50 44.12507 18.47152 36312 ft 438 kts 354°
2026-05-08 20:50 44.15536 18.46879 36603 ft 437 kts 353°
2026-05-08 20:50 44.18554 18.46607 36845 ft 436 kts 353°
2026-05-08 20:50 44.21580 18.46333 37042 ft 437 kts 353°
2026-05-08 20:51 44.24607 18.46059 37222 ft 437 kts 353°
2026-05-08 20:51 44.27638 18.45784 37403 ft 438 kts 353°
2026-05-08 20:51 44.30675 18.45510 37571 ft 439 kts 353°
2026-05-08 20:51 44.33713 18.45234 37731 ft 439 kts 353°
2026-05-08 20:52 44.36761 18.44957 37872 ft 440 kts 353°
2026-05-08 20:52 44.39814 18.44677 38014 ft 441 kts 353°
2026-05-08 20:52 44.42876 18.44399 38081 ft 443 kts 353°
2026-05-08 20:53 44.49019 18.43838 38082 ft 443 kts 353°
2026-05-08 20:53 44.55167 18.43276 38082 ft 444 kts 353°
2026-05-08 20:54 44.61321 18.42715 38080 ft 444 kts 353°
2026-05-08 20:54 44.67485 18.42148 38080 ft 445 kts 353°
2026-05-08 20:55 44.73654 18.41582 38084 ft 446 kts 353°
2026-05-08 20:55 44.79824 18.41014 38082 ft 446 kts 353°
2026-05-08 20:56 44.86010 18.40442 38075 ft 446 kts 353°
2026-05-08 20:56 44.92186 18.39870 38075 ft 446 kts 353°
2026-05-08 20:57 44.98363 18.39294 38069 ft 446 kts 353°
2026-05-08 20:57 45.04550 18.38714 38079 ft 447 kts 353°
2026-05-08 20:58 45.10769 18.38274 38070 ft 449 kts 357°
2026-05-08 20:58 45.17015 18.38496 38074 ft 451 kts 359°
2026-05-08 20:59 45.23267 18.38823 38076 ft 450 kts 359°
2026-05-08 20:59 45.29521 18.39142 37725 ft 451 kts 359°
2026-05-08 20:59 45.32639 18.39296 37278 ft 449 kts 359°
2026-05-08 21:00 45.35743 18.39447 36729 ft 449 kts 360°
2026-05-08 21:00 45.38855 18.39599 36149 ft 450 kts 360°
2026-05-08 21:00 45.41987 18.39750 35531 ft 454 kts
2026-05-08 21:00 45.45142 18.39905 34930 ft 457 kts
2026-05-08 21:01 45.48314 18.40060 34258 ft 459 kts
2026-05-08 21:01 45.51497 18.40218 33497 ft 461 kts
2026-05-08 21:01 45.54683 18.40377 32942 ft 457 kts
2026-05-08 21:01 45.57832 18.40533 32492 ft 452 kts
2026-05-08 21:02 45.60944 18.40686 32061 ft 446 kts
2026-05-08 21:02 45.64013 18.40836 31638 ft 440 kts
2026-05-08 21:02 45.67042 18.40985 31232 ft 434 kts
2026-05-08 21:02 45.70048 18.41149 30819 ft 431 kts
2026-05-08 21:03 45.73011 18.41652 30414 ft 430 kts
2026-05-08 21:03 45.75913 18.42638 30003 ft 429 kts 15°
2026-05-08 21:03 45.78698 18.44088 29495 ft 428 kts 22°
2026-05-08 21:03 45.81386 18.45853 29045 ft 424 kts 25°
2026-05-08 21:04 45.84026 18.47677 28635 ft 420 kts 25°
2026-05-08 21:04 45.86644 18.49499 28216 ft 416 kts 25°
2026-05-08 21:04 45.89231 18.51292 27783 ft 413 kts 25°
2026-05-08 21:04 45.91797 18.53063 27373 ft 409 kts 25°
2026-05-08 21:05 45.94342 18.54813 26962 ft 405 kts 25°
2026-05-08 21:05 45.96874 18.56556 26549 ft 402 kts 25°
2026-05-08 21:05 45.99380 18.58278 26130 ft 399 kts 24°
2026-05-08 21:05 46.01879 18.59996 25708 ft 397 kts 24°
2026-05-08 21:06 46.04361 18.61701 25300 ft 395 kts 24°
2026-05-08 21:06 46.06833 18.63404 24881 ft 393 kts 24°
2026-05-08 21:06 46.09288 18.65095 24458 ft 390 kts 24°
2026-05-08 21:06 46.11727 18.66776 24056 ft 387 kts 24°
2026-05-08 21:07 46.14137 18.68439 23659 ft 383 kts 24°
2026-05-08 21:07 46.16525 18.70090 23256 ft 381 kts 25°
2026-05-08 21:07 46.18900 18.71730 22870 ft 377 kts 24°
2026-05-08 21:07 46.21251 18.73357 22473 ft 375 kts 25°
2026-05-08 21:08 46.23588 18.74975 22071 ft 373 kts 25°
2026-05-08 21:08 46.25915 18.76590 21681 ft 370 kts 25°
2026-05-08 21:08 46.28224 18.78192 21278 ft 368 kts 25°
2026-05-08 21:08 46.30525 18.79790 20888 ft 365 kts 25°
2026-05-08 21:09 46.32801 18.81372 20501 ft 363 kts 25°
2026-05-08 21:09 46.35060 18.82943 20125 ft 360 kts 25°
2026-05-08 21:09 46.37299 18.84503 19744 ft 357 kts 25°
2026-05-08 21:09 46.39527 18.86057 19350 ft 355 kts 25°
2026-05-08 21:10 46.41740 18.87601 18956 ft 353 kts 26°
2026-05-08 21:10 46.43937 18.89136 18570 ft 350 kts 26°
2026-05-08 21:10 46.46118 18.90660 18183 ft 348 kts 26°
2026-05-08 21:10 46.48281 18.92175 17797 ft 346 kts 26°
2026-05-08 21:11 46.50435 18.93685 17402 ft 344 kts 26°
2026-05-08 21:11 46.52574 18.95186 17003 ft 342 kts 26°
2026-05-08 21:11 46.54704 18.96681 16603 ft 340 kts 26°
2026-05-08 21:11 46.56822 18.98171 16214 ft 338 kts 26°
2026-05-08 21:12 46.58934 18.99656 15815 ft 337 kts 26°
2026-05-08 21:12 46.61032 19.01132 15436 ft 334 kts 26°
2026-05-08 21:12 46.63117 19.02599 15058 ft 332 kts 26°
2026-05-08 21:12 46.65184 19.04055 14681 ft 330 kts 26°
2026-05-08 21:13 46.67236 19.05503 14300 ft 328 kts 26°
2026-05-08 21:13 46.69276 19.06943 13917 ft 326 kts 26°
2026-05-08 21:13 46.71308 19.08381 13527 ft 325 kts 25°
2026-05-08 21:13 46.73329 19.09811 13152 ft 323 kts 25°
2026-05-08 21:14 46.75339 19.11233 12775 ft 321 kts 25°
2026-05-08 21:14 46.77332 19.12644 12411 ft 318 kts 25°
2026-05-08 21:14 46.79314 19.14049 12042 ft 316 kts 25°
2026-05-08 21:14 46.81280 19.15442 11679 ft 314 kts 25°
2026-05-08 21:15 46.83229 19.16827 11325 ft 311 kts 25°
2026-05-08 21:15 46.85162 19.18200 10971 ft 309 kts 25°
2026-05-08 21:15 46.87082 19.19564 10613 ft 306 kts 25°
2026-05-08 21:15 46.88983 19.20918 10262 ft 303 kts 25°
2026-05-08 21:16 46.90869 19.22261 9906 ft 301 kts 25°
2026-05-08 21:16 46.92742 19.23596 9547 ft 299 kts 25°
2026-05-08 21:16 46.94599 19.24922 9186 ft 297 kts 25°
2026-05-08 21:16 46.96446 19.26240 8820 ft 295 kts 26°
2026-05-08 21:17 46.98280 19.27549 8451 ft 293 kts 26°
2026-05-08 21:17 47.00101 19.28850 8089 ft 291 kts 26°
2026-05-08 21:17 47.01909 19.30143 7724 ft 289 kts 26°
2026-05-08 21:17 47.03705 19.31430 7368 ft 287 kts 26°
2026-05-08 21:18 47.05486 19.32707 7017 ft 285 kts 26°
2026-05-08 21:18 47.07257 19.33977 6667 ft 283 kts 26°
2026-05-08 21:18 47.09016 19.35240 6318 ft 281 kts 26°
2026-05-08 21:18 47.10770 19.36500 5970 ft 279 kts 26°
2026-05-08 21:19 47.12507 19.37749 5630 ft 277 kts 26°
2026-05-08 21:19 47.14226 19.38986 5294 ft 275 kts 26°
2026-05-08 21:19 47.15937 19.40218 4956 ft 273 kts 26°
2026-05-08 21:19 47.17636 19.41442 4624 ft 271 kts 26°
2026-05-08 21:20 47.19318 19.42655 4294 ft 269 kts 26°
2026-05-08 21:20 47.20993 19.43862 3961 ft 268 kts 26°
2026-05-08 21:20 47.22655 19.45062 3632 ft 266 kts 26°
2026-05-08 21:20 47.24305 19.46254 3319 ft 263 kts 26°
2026-05-08 21:21 47.25906 19.47412 3215 ft 250 kts 25°
2026-05-08 21:21 47.27436 19.48519 3125 ft 241 kts 25°
2026-05-08 21:21 47.28992 19.49269 2982 ft 233 kts
2026-05-08 21:21 47.30548 19.48747 2971 ft 228 kts 330°
2026-05-08 21:22 47.31668 19.47174 2984 ft 219 kts 308°
2026-05-08 21:22 47.32539 19.45403 2972 ft 210 kts 308°
2026-05-08 21:22 47.33447 19.43721 2903 ft 210 kts 312°
2026-05-08 21:22 47.34414 19.42122 2662 ft 209 kts 314°
2026-05-08 21:23 47.35393 19.40552 2398 ft 206 kts 314°
2026-05-08 21:23 47.36317 19.39066 2200 ft 188 kts 314°
2026-05-08 21:23 47.37163 19.37695 1949 ft 174 kts 314°
2026-05-08 21:23 47.37948 19.36421 1684 ft 162 kts 314°
2026-05-08 21:24 47.38679 19.35234 1446 ft 151 kts 314°
2026-05-08 21:24 47.39360 19.34129 1238 ft 143 kts 313°
2026-05-08 21:24 47.40031 19.33038 1077 ft 143 kts 314°
2026-05-08 21:24 47.40702 19.31965 902 ft 142 kts 314°
2026-05-08 21:25 47.41370 19.30890 723 ft 142 kts 313°
2026-05-08 21:25 47.42032 19.29817 521 ft 141 kts 313°
2026-05-08 21:25 47.42683 19.28761 416 ft 129 kts 313°
2026-05-08 21:25 47.43176 19.27968 436 ft 80 kts 313°
2026-05-08 21:26 47.43474 19.27489 452 ft 54 kts 311°
2026-05-08 21:26 47.43665 19.27163 462 ft 32 kts 304°
2026-05-08 21:26 47.43745 19.26886 469 ft 27 kts 282°
2026-05-08 21:26 47.43775 19.26689 474 ft 16 kts 283°
2026-05-08 21:27 47.43799 19.26532 475 ft 12 kts 281°
2026-05-08 21:27 47.43763 19.26435 476 ft 11 kts 223°
2026-05-08 21:27 47.43704 19.26355 475 ft 12 kts 224°
2026-05-08 21:27 47.43677 19.26231 475 ft 13 kts 267°
2026-05-08 21:28 47.43670 19.26090 475 ft 14 kts 250°
2026-05-08 21:28 47.43605 19.25982 475 ft 14 kts 222°
2026-05-08 21:28 47.43527 19.25877 473 ft 16 kts 222°
2026-05-08 21:28 47.43448 19.25770 469 ft 8 kts 221°
2026-05-08 21:29 47.43440 19.25725 468 ft 4 kts 300°
2026-05-08 21:29 47.43454 19.25699 468 ft 1 kts 312°
2026-05-08 21:29 47.43457 19.25695 468 ft 0 kts 312°